MARISAT 1

Satellite information

Favourite Embed

Satellite Type and Status

PAYLOADIN ORBIT

Key statistics

Satellite MARISAT 1 at a glance.

Uptime

17975

Days in orbit

Revolutions

≈ 1.0

Per day

Orbit

OTHER

Other

Inclination

6.8

Latest

Satellite identification and parameters

Extended collection of information and parameters for MARISAT 1.

Object identification

Identified? True

Debris? False

Object name: MARISAT 1

International designator: 1976-017A

Object number (NORAD): 8697

Object ID (CCSDS): 8697

Country: UNITED STATES OF AMERICA (US)

Current information (Y/N): Y

RCS size: LARGE

Orbital parameters

Period: 1451.475 minutes

Inclination: 6.784 deg

SMA: 42465.201 km

Apoapsis: 36138.296 km

Periapsis: 36035.836 km

RAAN: 297.7275 deg

Eccentricy: 0.0012064

Argument of periapsis: 185.8013 deg

Mean anomaly: 180.7387 deg

Mean motion: 0.99209438 rev/day

Mean motion (dot): -0.0000032 rev/day2

B* drag term: 0.0 1/REarth

Two-line elements (TLE)

Creation date: May 6, 2025, 3:54 a.m.

Reference frame: TEME

Reference center: EARTH

Epoch: May 5, 2025, 8:08 p.m. UTC

TLE line 0: 0 MARISAT 1

TLE line 1: 1 08697U 76017A 25125.83942009 -.00000320 00000-0 00000-0 0 9997

TLE line 2: 2 08697 6.7840 297.7275 0012064 185.8013 180.7387 0.99209438178065

Live tracking on map

Real-time ground track for satellite MARISAT 1.

In-orbit conjunctions

A list of the most updated potential collisions computed for object MARISAT 1.

Target Orbit TCA Probability of collision Miss distance Type
HIMAWARI 1 (GMS 1) OTHER 2024-10-03 14:07:11 TBA 3558.0 (m) PAYLOAD

Associated space launch

Geostationary communications satellite built by Hughes Aircraft Company

MARISAT 1 was lifted into orbit during the mission ‘Delta 2914 | Marisat 1’, on board a Delta 2914 space rocket.

The launch took place on Feb. 19, 1976, 10:32 p.m. from Space Launch Complex 17B.

For more information about the launch, click the button.

Launch to space Delta 2914 | Marisat 1
Delta 2914 | Marisat 1

Agency: N/A

Status: Launch Successful

Launch date: Feb. 19, 1976, 10:32 p.m. UTC

Rocket: Delta 2914

Launch pad: Space Launch Complex 17B

Location: Cape Canaveral SFS, FL, USA

...

Latest news about this satellite

There are no fresh news available about this satellite. Check back as we update our databases every day.


Newsletter sign-up

Weekly statistics, charts and insights to help you stay on top of the space industry.